Find Starlink 34406

NORAD ID: 64705 Int'l Des: 2025-142 Owner: SPXS Country: US Constellation: starlink operational
LEOCIRCULAR

Current View

Loading 3D Globe...

About Starlink 34406

Starlink 34406 (NORAD 64705) is a starlink constellation satellite (v2 mini) launched Jun 28, 2025 by SPXS of US. It operates in LEO, CIRCULAR orbit with a mass of 575.00 kg.

Upcoming Passes

Passes for default location (London). Set your location on the main map for personalized predictions.

Altitude History

Loading altitude history...

Two-Line Element Set

1 64705U 25142K 26237.22470125 .00003038 00000-0 26221-3 0 9999
2 64705 69.9992 249.6028 0003969 262.6349 97.4359 14.98336333 64840
Epoch: Aug 25, 2026 • Age: 7 hours

Current Status

Altitude 575.1 km
Apogee / Perigee N/A
Velocity 7.58 km/s
Sub-Earth Point 22.92°N, 101.14°W
Launch Date Jun 28, 2025
Age 1.1 years
Type internet

Technical Details

Classification Payload
Mass 575.00 kg
Dry Mass 530.00 kg
Total Mass 575.00 kg
Length 0.30 m
Diameter 4.10 m
Span 29.00 m
Shape Box + pan
Manufacturer SPXS
Bus Type Starlink V2MO
Phase Status In Orbit
Owner/State SPXS/US

Most Searched